Vertical_Velocity
2 1 0 -1 -1 1 -2 -2 2 1 4 4 5 -2 -2 0 1 -2 -0 5 1 -2 4 4 2 1 2 -0 1 -4 -1 -0 0 2 2 2 2 2 -1 -2 0 -1 -1 -0 1 -1 -1 -1 0
1 1 -1 -2 -1 -0 -4 3 3 12 5 4 -2 -1 1 6 5 -3 -7 -1 2 1 2 4 3 2 0 -2 -0 0 -0 1 0 -0 3 3 3 3 1 -1 1 -1 0 -0 -1 -0 -0 -3 0
0 1 -0 -3 -1 -10 -3 2 2 1 -0 2 -2 3 -2 2 3 -1 5 -1 0 0 -1 2 1 2 1 1 2 -1 -0 0 1 -0 2 2 1 3 2 0 1 1 -1 -0 -1 1 -1 -0 1
0 1 -0 -7 -3 -6 -0 3 2 2 0 2 -3 5 2 1 -3 -2 0 -0 5 -3 -2 1 2 2 1 1 0 -0 1 1 1 -0 2 2 1 3 3 1 3 1 0 0 2 0 -1 -1 1
1 -1 -1 -7 -7 -6 0 4 2 2 -2 6 -5 2 1 2 -1 -2 -4 6 3 5 3 1 2 1 1 1 -4 -3 -0 -1 2 1 2 1 -0 1 2 1 3 2 -0 -1 2 -2 -2 -1 0
0 3 -2 -10 -3 -1 -1 3 -1 0 -1 7 -7 -7 -1 3 -0 2 -1 -1 10 7 4 2 0 1 -3 -4 1 1 1 -0 1 1 0 -1 0 1 1 0 3 2 0 0 2 -1 -1 -2 -0
2 3 -4 -4 -5 -4 4 3 -1 -5 2 5 -2 -5 -5 -6 -0 1 2 -0 3 2 3 5 2 -2 0 2 -5 -6 -1 5 2 2 2 1 1 -1 1 1 1 3 2 0 2 2 0 -3 -1
1 4 -4 -3 -5 -18 1 1 2 0 1 3 4 3 2 -2 -4 -2 -4 -0 2 3 4 6 2 -0 -1 -2 1 2 -3 -7 4 -0 1 0 1 0 -1 2 1 0 4 0 2 0 1 -1 -1
3 3 -6 -4 -0 -9 4 2 1 2 -3 2 2 0 -4 -0 -1 1 -7 -2 2 1 3 6 4 4 2 -1 1 -0 -1 3 -3 2 1 -0 1 -0 0 0 -0 0 2 3 -2 1 1 1 0
3 1 -5 -1 2 -6 -4 -2 4 3 2 -4 -2 2 3 -6 -2 1 2 -1 1 1 5 5 3 7 5 4 6 1 -0 -1 2 1 -2 2 -3 -2 -1 0 2 0 -2 3 0 -1 1 -0 -1
-2 -6 4 -0 0 3 -4 -5 2 0 -1 -4 -2 7 4 0 -1 2 0 -2 -1 8 6 8 5 5 -1 5 3 5 5 -2 2 3 4 3 -0 -2 -0 -2 0 0 0 2 1 0 -0 2 -0
-1 -1 0 1 3 1 -5 -7 -7 4 -8 1 -2 1 5 9 -3 -4 1 2 -3 6 6 7 2 4 0 4 2 -0 -1 5 -3 1 1 2 5 0 -2 -0 -1 -0 -0 0 0 2 -1 1 2
-2 2 -0 3 -0 -5 4 -5 -1 -9 3 3 1 -2 -2 1 7 2 -6 -6 -3 -3 3 -1 2 0 -5 2 0 2 -1 6 0 3 -1 -3 3 5 2 -1 -0 -1 -1 -1 1 -1 -2 4 0
-1 -1 0 -1 -3 -2 -3 2 5 -19 9 -1 -2 1 -0 -0 2 2 -0 -0 0 4 2 -5 -9 13 -24 15 3 5 5 8 3 -6 2 3 2 1 2 -0 1 -2 -0 -1 1 -1 -2 -1 3
1 1 1 -3 0 -3 7 -4 -8 2 -10 -1 -2 -3 -0 -1 -3 0 4 0 -1 1 7 1 6 1 -3 7 -4 -0 8 1 1 -0 2 -1 -0 -0 1 2 -1 1 -3 -2 -2 -1 -1 -3 2
0 2 -0 2 -0 1 4 -2 -5 -4 -1 -6 3 1 -1 -0 3 -1 3 -1 -3 -6 -4 -2 -15 -6 -3 -4 2 -6 2 6 -2 1 4 -3 1 3 0 2 -1 2 -2 -1 -1 -1 -1 0 -1
-1 -1 -0 -4 -0 2 6 4 -3 1 -0 -4 -7 -1 2 1 6 -2 0 -3 -1 -2 1 5 -2 -1 1 5 -3 -1 10 -4 -3 1 -2 1 -2 3 1 -1 2 1 -2 -1 1 -0 -2 -1 -0
-1 1 0 -0 -7 9 -3 1 1 -6 -5 -7 -1 -2 -1 1 -3 0 -2 -2 -0 -4 -2 0 6 3 -2 6 5 -1 -3 -4 -4 -12 -1 -1 1 3 3 -1 -1 2 -2 -3 1 2 -2 1 2
-1 -1 -1 -8 -1 -1 -0 -1 0 -4 -5 -3 2 6 -1 1 -3 -3 -1 -1 -3 -4 -0 -3 -1 4 1 -2 -3 -2 -7 1 -5 -3 0 1 -2 5 0 -1 -1 -2 -2 0 -2 1 -2 -1 -1
2 0 -5 -4 1 7 -9 -6 -4 2 3 4 -3 1 -1 -0 1 1 0 1 -0 2 3 1 2 -1 -1 1 1 -6 -2 0 12 12 6 10 2 2 2 -3 3 1 0 -1 -1 1 -0 -2 -1
-0 1 -4 1 -2 -0 -0 -8 -6 -0 4 0 -0 -4 -4 -2 2 2 -0 -2 -2 1 2 3 1 3 1 1 0 2 -2 -6 -2 -6 -8 -2 -2 -3 -5 -3 2 -2 -1 0 0 0 -2 2 -1
4 -0 0 -2 6 -2 -1 -8 -5 -2 4 0 -2 0 -0 -2 -3 -4 -3 -2 -1 -2 -2 -0 0 1 7 3 0 1 -3 -2 0 -2 2 7 -4 -2 10 -5 1 2 -1 -1 1 2 2 -1 -1
-7 -0 -2 2 1 3 -2 4 2 5 2 -1 -1 -1 -3 -1 -1 -1 -0 -2 -2 -3 -2 -3 -3 3 5 1 1 3 -0 -1 2 10 0 -5 1 2 8 1 4 4 2 -2 -0 1 -1 1 -1
1 -1 2 3 5 5 -7 -1 -1 1 -3 -4 -3 -2 -2 -0 0 -0 -3 -5 -3 -5 -8 -7 -1 -0 3 -0 5 -1 1 -1 -2 3 3 -6 -0 4 3 12 -4 18 11 -1 0 3 -2 1 -1
4 3 1 4 4 -1 -1 7 -3 -2 -1 3 2 1 1 1 -1 -4 -2 -2 -1 -0 -2 -2 -5 6 1 -2 -5 2 1 -2 -3 6 10 7 -0 -11 -4 4 -4 -7 -1 3 2 2 1 1 -1
1 0 -2 -1 -0 0 0 -4 1 3 1 2 -0 3 -0 -2 -5 -11 -13 -7 -5 -6 -4 3 -1 -0 9 1 -2 -1 0 1 1 1 5 7 5 -3 11 18 9 -30 15 3 -1 1 -1 -2 0
-1 0 -2 -1 -1 5 -5 -0 -2 5 5 0 -3 -5 -3 -2 -3 -3 0 2 2 -3 -2 1 -1 4 2 12 2 6 3 -1 1 7 5 -0 3 3 12 13 15 16 10 0 -3 2 -0 -0 1
1 -1 -0 -0 1 -0 -2 -1 1 -4 -3 -3 0 -1 1 3 3 -0 -4 0 2 -6 3 5 -1 2 6 8 11 1 0 5 10 3 9 3 1 1 0 11 8 11 4 0 -0 1 2 -1 -1
-1 -1 -1 -2 -1 0 0 -3 2 -5 -4 -3 -3 -7 -8 -5 -1 -1 -3 -4 -5 -4 0 2 0 3 2 -6 -6 7 4 11 1 8 2 3 2 2 2 8 4 -3 -5 4 0 3 2 -3 0
1 -1 2 -2 -0 2 1 -11 -4 -3 0 -0 -1 -3 -4 -4 -5 -2 -5 -10 -5 -2 3 0 5 6 -2 2 7 -17 3 19 5 2 -2 2 -1 5 5 -2 -4 0 -6 1 1 4 3 0 -2
Height
3137 3138 3140 3142 3148 3140 3136 3137 3138 3141 3142 3141 3141 3141 3142 3143 3143 3146 3143 3144 3144 3145 3148 3150 3152 3153 3154 3154 3153 3154 3156 3156 3157 3158 3157 3158 3158 3159 3159 3160 3159 3160 3161 3163 3164 3165 3166 3168 3168
3135 3136 3138 3140 3141 3138 3134 3135 3138 3140 3139 3139 3139 3140 3141 3142 3141 3140 3142 3143 3144 3145 3147 3149 3151 3152 3153 3153 3153 3154 3155 3155 3155 3156 3157 3157 3157 3158 3158 3158 3158 3159 3160 3161 3163 3164 3165 3166 3167
3133 3134 3137 3137 3133 3132 3132 3133 3134 3135 3135 3136 3137 3138 3139 3139 3139 3139 3140 3142 3144 3145 3146 3148 3150 3152 3152 3153 3153 3153 3154 3154 3154 3155 3155 3156 3156 3157 3157 3157 3158 3158 3159 3160 3162 3163 3165 3165 3166
3130 3131 3133 3132 3127 3129 3130 3131 3132 3133 3134 3133 3134 3135 3137 3136 3136 3136 3138 3141 3142 3144 3146 3148 3149 3151 3152 3152 3153 3153 3153 3154 3154 3154 3154 3154 3155 3156 3155 3156 3157 3157 3158 3159 3161 3162 3164 3165 3165
3126 3126 3127 3126 3124 3125 3127 3128 3128 3129 3130 3130 3129 3131 3133 3132 3133 3133 3135 3139 3141 3143 3144 3146 3148 3149 3151 3151 3151 3151 3152 3153 3152 3152 3153 3152 3153 3154 3154 3155 3155 3156 3157 3158 3159 3161 3163 3164 3164
3122 3122 3121 3121 3119 3122 3123 3123 3124 3124 3125 3126 3125 3127 3128 3128 3128 3129 3131 3133 3138 3141 3142 3143 3145 3146 3147 3148 3149 3149 3150 3151 3151 3151 3150 3150 3151 3152 3152 3154 3154 3155 3156 3157 3158 3160 3162 3163 3163
3117 3117 3115 3116 3115 3116 3120 3119 3119 3120 3122 3120 3121 3123 3124 3123 3123 3125 3128 3130 3133 3136 3138 3140 3141 3143 3144 3144 3145 3146 3148 3149 3149 3149 3149 3148 3148 3149 3150 3151 3152 3153 3154 3155 3156 3158 3159 3161 3162
3113 3112 3109 3110 3111 3112 3115 3114 3114 3115 3117 3117 3118 3118 3120 3120 3122 3122 3123 3126 3129 3131 3134 3136 3138 3139 3140 3141 3141 3142 3144 3146 3146 3148 3148 3147 3147 3147 3148 3149 3150 3151 3152 3153 3154 3155 3157 3158 3159
3108 3105 3102 3105 3107 3108 3110 3110 3111 3109 3111 3112 3113 3113 3115 3116 3117 3117 3118 3122 3125 3126 3129 3132 3134 3135 3136 3138 3138 3140 3141 3142 3143 3144 3145 3146 3145 3146 3146 3147 3147 3148 3149 3150 3151 3152 3154 3155 3156
3102 3096 3096 3100 3103 3103 3105 3106 3105 3104 3104 3107 3107 3110 3110 3111 3112 3113 3113 3116 3120 3123 3126 3128 3131 3133 3134 3135 3136 3137 3137 3139 3140 3141 3142 3143 3144 3144 3144 3144 3144 3145 3146 3147 3148 3149 3150 3151 3153
3093 3089 3094 3094 3098 3098 3099 3099 3099 3097 3096 3102 3103 3105 3106 3107 3108 3109 3109 3111 3114 3118 3121 3124 3126 3128 3129 3131 3133 3134 3135 3135 3137 3137 3138 3139 3141 3141 3141 3141 3141 3142 3143 3143 3144 3145 3146 3147 3149
3087 3086 3090 3089 3092 3091 3091 3093 3092 3091 3093 3096 3097 3098 3098 3101 3102 3104 3105 3107 3108 3112 3116 3118 3120 3122 3124 3125 3127 3130 3132 3131 3132 3134 3135 3136 3137 3138 3138 3138 3139 3138 3139 3140 3140 3142 3143 3143 3145
3081 3083 3083 3084 3084 3085 3086 3085 3087 3083 3090 3089 3089 3091 3092 3093 3096 3097 3099 3102 3103 3105 3108 3109 3111 3113 3116 3118 3121 3124 3126 3127 3127 3129 3131 3132 3133 3134 3135 3135 3135 3135 3135 3136 3136 3137 3137 3138 3140
3077 3078 3078 3077 3079 3079 3080 3080 3078 3081 3083 3082 3083 3084 3085 3086 3088 3090 3093 3095 3096 3098 3100 3102 3104 3106 3106 3110 3115 3119 3121 3122 3121 3123 3125 3127 3129 3129 3131 3131 3132 3132 3132 3132 3132 3132 3132 3133 3135
3074 3072 3072 3073 3075 3073 3075 3071 3072 3075 3076 3075 3076 3077 3078 3080 3082 3084 3085 3086 3089 3091 3094 3093 3096 3100 3101 3104 3108 3110 3114 3114 3114 3117 3119 3121 3123 3125 3126 3128 3128 3128 3128 3128 3128 3128 3127 3128 3130
3070 3068 3067 3069 3070 3070 3070 3065 3068 3069 3069 3070 3071 3072 3073 3075 3075 3076 3076 3075 3076 3078 3082 3085 3088 3091 3092 3095 3100 3102 3105 3106 3107 3110 3112 3114 3117 3119 3121 3123 3124 3125 3124 3124 3123 3123 3122 3123 3124
3064 3064 3064 3065 3066 3066 3065 3061 3063 3064 3064 3064 3064 3065 3067 3068 3068 3066 3067 3067 3068 3069 3072 3075 3077 3079 3083 3087 3089 3093 3095 3097 3101 3103 3105 3107 3110 3112 3115 3117 3119 3120 3120 3121 3120 3119 3118 3118 3119
3059 3060 3059 3059 3062 3060 3058 3055 3057 3058 3058 3058 3058 3059 3059 3059 3060 3060 3060 3059 3060 3061 3062 3064 3068 3069 3072 3075 3077 3079 3083 3087 3091 3094 3097 3100 3101 3105 3107 3110 3113 3114 3115 3116 3116 3115 3114 3114 3114
3055 3054 3054 3054 3056 3051 3051 3049 3051 3053 3052 3052 3053 3052 3050 3052 3053 3052 3052 3051 3051 3052 3053 3054 3057 3060 3062 3063 3065 3067 3071 3076 3079 3084 3089 3091 3093 3096 3100 3103 3106 3108 3110 3111 3111 3111 3110 3109 3110
3050 3050 3049 3049 3051 3047 3046 3041 3044 3046 3046 3046 3046 3046 3045 3045 3045 3045 3044 3042 3041 3042 3042 3044 3046 3049 3052 3053 3056 3058 3061 3065 3069 3074 3077 3082 3085 3088 3091 3095 3098 3102 3103 3104 3106 3106 3105 3105 3104
3045 3045 3046 3047 3046 3044 3040 3035 3036 3038 3040 3039 3040 3040 3039 3037 3036 3036 3036 3035 3033 3031 3031 3033 3034 3036 3039 3042 3045 3046 3048 3051 3055 3059 3066 3072 3077 3080 3083 3086 3090 3094 3096 3098 3100 3100 3100 3100 3099
3040 3042 3043 3044 3044 3043 3041 3034 3032 3033 3033 3035 3035 3034 3033 3031 3030 3029 3028 3027 3025 3024 3023 3021 3022 3023 3026 3029 3032 3034 3038 3041 3046 3051 3059 3064 3067 3070 3074 3078 3081 3085 3088 3090 3093 3094 3094 3094 3092
3037 3038 3040 3040 3039 3039 3038 3039 3026 3029 3029 3030 3030 3029 3028 3026 3024 3021 3020 3018 3017 3015 3014 3013 3012 3013 3013 3016 3019 3023 3027 3033 3038 3043 3048 3053 3057 3061 3065 3069 3073 3077 3080 3083 3085 3087 3087 3088 3086
3034 3036 3037 3036 3036 3033 3030 3033 3019 3023 3025 3026 3025 3024 3023 3020 3017 3014 3011 3008 3006 3003 3002 3002 3002 3002 3002 3003 3006 3010 3016 3024 3028 3032 3038 3043 3047 3052 3056 3060 3063 3067 3071 3074 3077 3079 3081 3081 3081
3031 3032 3032 3032 3031 3025 3026 3027 3018 3020 3019 3019 3019 3018 3016 3014 3011 3007 3003 2998 2993 2989 2987 2987 2989 2991 2991 2992 2994 2998 3005 3012 3018 3023 3028 3034 3038 3042 3047 3051 3053 3056 3065 3066 3069 3072 3073 3074 3075
3026 3027 3026 3023 3023 3025 3026 3019 3016 3016 3015 3012 3012 3010 3009 3007 3004 2999 2995 2989 2983 2978 2974 2974 2976 2979 2981 2981 2983 2987 2994 3000 3007 3014 3018 3023 3028 3035 3039 3043 3047 3052 3055 3057 3061 3064 3066 3067 3068
3022 3023 3024 3024 3024 3024 3018 3014 3014 3011 3010 3008 3007 3005 3003 3001 2996 2990 2985 2981 2976 2972 2968 2965 2967 2970 2972 2974 2975 2978 2984 2990 2997 3003 3009 3013 3018 3025 3029 3035 3039 3043 3047 3050 3054 3057 3059 3060 3060
3019 3020 3022 3023 3022 3015 3007 3010 3006 3006 3006 3005 3004 3002 2998 2995 2991 2987 2981 2975 2970 2967 2962 2960 2960 2962 2965 2967 2969 2972 2977 2983 2988 2993 2999 3004 3009 3013 3019 3025 3029 3033 3038 3042 3046 3049 3051 3052 3052
3015 3015 3017 3019 3018 3014 3009 3004 3003 3002 3002 3001 2999 2996 2993 2990 2987 2982 2977 2971 2967 2963 2958 2956 2955 2957 2959 2962 2964 2967 2970 2976 2980 2986 2991 2995 3001 3006 3011 3015 3021 3026 3030 3035 3039 3042 3044 3044 3045
3009 3010 3011 3013 3014 3013 3013 3001 2998 2998 2998 2997 2995 2992 2990 2986 2984 2979 2974 2970 2965 2959 2954 2953 2952 2951 2954 2956 2957 2962 2966 2972 2974 2979 2983 2988 2992 2998 3002 3007 3014 3018 3024 3028 3032 3034 3037 3038 3038